Location: Gaast
(52.9002°N, 5.8891°E)
Time: 13:47:37
(UTC+00:00)

ACS3 Solar Sail - Pass Details

Date: 26 January 2026
Orbit: 900 x 968 km, 97.2° (Epoch: 10 February)

Event Time Altitude Azimuth Distance (km) Brightness Sun altitude
Rises 03:37:37 0° 8° (N) 3,632 5.1 -34.5°
Reaches altitude 10° 03:40:26 10° 357° (N) 2,672 4.2 -34.0°
Enters shadow 03:41:00 12° 354° (N) 2,496 4.0 -34.0°
